Regional Weather Roundup
Issued by NWS

Home | Current Version | Previous Version | Graphics & Text | Print | Product List | Glossary On
Versions: 1 2 3 4 5 6 7 8 9 10 11 12 13 14 15 16 17 18 19 20 21 22 23 24 25 26 27
000
ASUS45 KCYS 310410
RWRWY

WYOMING REGIONAL WEATHER ROUNDUP
NATIONAL WEATHER SERVICE CHEYENNE WY
1000 PM MDT SAT JUL 30 2016

NOTE:  "FAIR" INDICATES FEW OR NO CLOUDS BELOW 12,000 FEET
WITH NO SIGNIFICANT WEATHER AND/OR OBSTRUCTIONS TO VISIBILITY.

WYZ001-310500-
YELLOWSTONE NATIONAL PARK

CITY           SKY/WX    TMP DP  RH WIND       PRES   REMARKS
LK YELLOWSTONE   N/A     55  43  63 CALM      30.16S
W YELLOWSTONE  NOT AVBL

$$
WYZ002>013-054>058-071-098>099-310500-
NORTHERN WYOMING

CITY           SKY/WX    TMP DP  RH WIND       PRES   REMARKS
JACKSON        FAIR      63  55  77 S9        30.09R THUNDER
CODY           FAIR      75  46  35 CALM      29.91R
GREYBULL       FAIR      82  41  23 CALM      29.79R
WORLAND        FAIR      78  42  27 CALM      29.81R
SHERIDAN       FAIR      73  54  51 SW10      29.80R
BUFFALO        FAIR      76  48  37 N10       29.90R
GILLETTE       FAIR      69  55  60 SE13      29.82S
HULETT         FAIR      70  50  49 S7        29.84S
NEWCASTLE      FAIR      66  54  63 SE8       29.87S

$$
WYZ014>020-022>026-101>103-310500-
CENTRAL WYOMING

CITY           SKY/WX    TMP DP  RH WIND       PRES   REMARKS
BIG PINEY      FAIR      61  47  59 MISG      30.14R
PINEDALE       CLOUDY    68  37  32 NW6       30.16R
DUBOIS         FAIR      66  36  32 NW8       30.11S
LANDER         FAIR      77  39  25 SW12      29.96R
RIVERTON       FAIR      75  40  28 W9        29.95R
CASPER         FAIR      69  40  34 S7        29.91R
DOUGLAS        FAIR      80  39  23 SW10      29.88R

$$
WYZ021-027>030-104>119-310500-
SOUTHERN WYOMING

CITY           SKY/WX    TMP DP  RH WIND       PRES   REMARKS
EVANSTON       MOCLDY    70  42  36 S6        30.15S
KEMMERER         N/A    N/A N/A N/A SW6       30.17R
FORT BRIDGER   FAIR      69  43  39 S12       30.17R
ROCK SPRINGS   FAIR      68  43  40 SW9       30.12R
DIXON          FAIR      65  42  43 CALM      30.14R
RAWLINS        FAIR      73  38  27 W14       30.10R
SARATOGA       FAIR      70  37  30 SW8       30.14R
LARAMIE        FAIR      66  40  38 S9        30.14S
CHEYENNE       FAIR      72  58  61 CALM      30.10R
TORRINGTON     FAIR      76  60  57 SE9       29.89S
PINE BLUFFS    TSTM      72  59  64 MISG      30.03R

$$




USA.gov is the U.S. government's official web portal to all federal, state and local government web resources and services.